Location: OLV Amersfoort
(52.1552°N, 5.3872°E)
Time: 12:21:41
(UTC+02:00)

ISS - Visible Passes

Search period start: 21 October 2014 00:00
Search period end: 30 October 2014 23:00
Orbit: 413 x 416 km, 51.6° (Epoch: 20 October)

Date Brightness Start Highest point End Pass type
(mag) Time Alt. Az. Time Alt. Az. Time Alt. Az.
21 Oct -2.4 20:16:13 10° W 20:19:25 43° SSW 20:20:31 31° SSE visible
22 Oct -2.8 19:27:09 10° W 19:30:27 57° SSW 19:33:31 11° ESE visible
22 Oct -0.8 21:04:20 10° W 21:06:23 18° SW 21:06:23 18° SW visible
23 Oct -1.4 20:14:58 10° W 20:17:46 25° SSW 20:19:27 17° SSE visible
24 Oct -1.8 19:25:42 10° W 19:28:47 35° SSW 19:31:52 10° SE visible
25 Oct -0.4 20:14:07 10° WSW 20:15:50 13° SW 20:17:32 10° S visible
26 Oct -0.7 18:24:23 10° W 18:26:51 19° SW 18:29:20 10° SSE visible
